Weather History for Spirit of St Louis, MO

Change the Weather History Date:

Saturday, February 23, 2013

  Actual Average Record
Temperature  
Mean Temperature 22 °F -  
Max Temperature 35 °F 45 °F 69 °F (2012)
Min Temperature 9 °F 27 °F 9 °F (2013)
Degree Days  
Heating Degree Days 43    
Moisture  
Dew Point 14 °F    
Average Humidity 74    
Maximum Humidity 92    
Minimum Humidity 52    
Precipitation  
Precipitation 0.00 in - - ()
Sea Level Pressure  
Sea Level Pressure 30.07 in    
Wind  
Wind Speed 2 mph (WSW)    
Max Wind Speed 10 mph    
Max Gust Speed -    
Visibility 8 miles    
Events      
Averages and records for this station are not official NWS values.
T = Trace of Precipitation, MM = Missing Value Source: NWS Daily Summary

Daily Weather History Graph

Daily Weather History Graph

Search for Another Location

Airport:

Trip Planner

Search our weather history database for the weather conditions in past years. The results will help you decide how hot, cold, wet, or windy it might be!

Date:

Astronomy

Feb. 23, 2013 Rise Set
Actual Time 6:42 AM CST 5:49 PM CST
Civil Twilight 6:16 AM CST 6:16 PM CST
Nautical Twilight 5:45 AM CST 6:47 PM CST
Astronomical Twilight 5:14 AM CST 7:18 PM CST
Moon 4:00 PM CST (2/23) 5:04 AM CST (2/23)
Length of Visible Light 12h 00m
Length of Day
11h 06m
Waxing Gibbous, 95% of the Moon is Illuminated
Feb 23
Waxing Gibbous
Feb 25
Full
Mar 4
Last Quarter
Mar 11
New
Mar 19
First Quarter

Hourly Weather History & Observations

Time (CST) Temp. Windchill Dew Point Humidity Pressure Visibility Wind Dir Wind Speed Gust Speed Precip Events Conditions
12:54 AM 16.0 °F - 12.0 °F 84% 30.10 in 8.0 mi Calm Calm - N/A   Clear
1:54 AM 12.0 °F 5.9 °F 9.0 °F 88% 30.10 in 8.0 mi West 3.5 mph - N/A   Clear
2:54 AM 12.9 °F - 9.0 °F 84% 30.09 in 7.0 mi Calm Calm - N/A   Clear
3:54 AM 9.0 °F -0.9 °F 6.1 °F 88% 30.09 in 7.0 mi WSW 5.8 mph - N/A   Clear
4:54 AM 12.0 °F - 9.0 °F 88% 30.08 in 5.0 mi Calm Calm - N/A   Clear
5:54 AM 10.9 °F - 8.1 °F 88% 30.08 in 5.0 mi Calm Calm - N/A   Clear
6:54 AM 10.9 °F - 8.1 °F 88% 30.09 in 4.0 mi Calm Calm - N/A   Clear
7:54 AM 10.0 °F - 8.1 °F 92% 30.10 in 4.0 mi Calm Calm - N/A   Clear
8:54 AM 17.1 °F 11.7 °F 15.1 °F 92% 30.09 in 5.0 mi SW 3.5 mph - N/A   Partly Cloudy
9:54 AM 25.0 °F - 18.0 °F 75% 30.09 in 10.0 mi Calm Calm - N/A   Clear
10:54 AM 28.0 °F - 17.1 °F 63% 30.08 in 10.0 mi Calm Calm - N/A   Clear
11:54 AM 30.0 °F 25.2 °F 17.1 °F 59% 30.08 in 10.0 mi WSW 4.6 mph - N/A   Partly Cloudy
12:54 PM 32.0 °F 28.7 °F 17.1 °F 54% 30.06 in 10.0 mi WSW 3.5 mph - N/A   Partly Cloudy
1:54 PM 33.1 °F 24.9 °F 17.1 °F 52% 30.04 in 10.0 mi WSW 10.4 mph - N/A   Partly Cloudy
2:54 PM 34.0 °F 26.6 °F 18.0 °F 52% 30.02 in 10.0 mi WSW 9.2 mph - N/A   Partly Cloudy
3:54 PM 35.1 °F 28.6 °F 19.0 °F 52% 30.03 in 10.0 mi West 8.1 mph - N/A   Partly Cloudy
4:54 PM 35.1 °F 29.3 °F 19.9 °F 54% 30.03 in 10.0 mi WSW 6.9 mph - N/A   Partly Cloudy
5:54 PM 32.0 °F - 19.0 °F 59% 30.04 in 10.0 mi Calm Calm - N/A   Clear
6:54 PM 28.0 °F - 19.0 °F 69% 30.06 in 10.0 mi Calm Calm - N/A   Clear
7:54 PM 26.1 °F - 19.0 °F 75% 30.06 in 10.0 mi Calm Calm - N/A   Clear
8:54 PM 23.0 °F - 17.1 °F 78% 30.06 in 9.0 mi Calm Calm - N/A   Clear
9:54 PM 19.9 °F - 16.0 °F 85% 30.05 in 9.0 mi Calm Calm - N/A   Clear
10:54 PM 18.0 °F 11.1 °F 14.0 °F 84% 30.06 in 7.0 mi WSW 4.6 mph - N/A   Clear
11:54 PM 18.0 °F - 12.9 °F 81% 30.07 in 7.0 mi Calm Calm - N/A   Clear